Location: Blankensee
(53.5126°N, 14.3055°E)
Time: 16:20:45
(UTC+00:00)

Cosmos 724 - Pass Details

Date: 08 August 2020
Orbit: 856 x 939 km, 65.6° (Epoch: 20 September)

Event Time Altitude Azimuth Distance (km) Brightness Sun altitude
Rises 01:43:11 0° 316° (NW) 3,503 7.5 -12.9°
Reaches altitude 10° 01:45:39 10° 315° (NW) 2,572 6.8 -12.7°
Maximum altitude 01:51:38 77° 231° (SW) 937 4.3 -12.2°
Drops below altitude 10° 01:57:43 10° 147° (SSE) 2,615 6.6 -11.6°
Sets 02:00:15 0° 146° (SE) 3,564 7.3 -11.3°
